Flag for Japan Weather past 2 weeks in Fukuoka, Japan

Now
46 °F

Sprinkles. Passing clouds.


Feels Like: 40 °F
Forecast: 41 / 48 °F
Wind: 14 mph from North

Location: Fukuoka Airport

Current Time: Jan 28, 2015 at 6:37:58 AM

Latest Report: Jan 28, 2015 at 6:00 AM


Visibility: N/A

Pressure: 30.12 "Hg

Humidity: 53%

Dew point: 30 °F

Location of FukuokaLocation

Historic Weather in Fukuoka — Graph

°F

Fukuoka temperature yesterday

Maximum temperature yesterday: 55 °F (at 10:30 AM)
Minimum temperature yesterday: 46 °F (at 11:30 PM)
Average temperature yesterday: 51 °F

Past Weeks' High & Low Weather Summary

 TemperatureHumidityPressure
High57 °F (Jan 21, 12:30 PM)100% (Jan 15, 12:30 AM)30.54 "Hg (Jan 15, 12:30 AM)
Low30 °F (Jan 18, 4:30 AM)34% (Jan 17, 3:00 PM)29.86 "Hg (Jan 15, 4:30 AM)
Average47 °F69%30.15 "Hg
* Reported Jan 13 5:00 AM — Jan 28 5:30 AM, Fukuoka, Weather by CustomWeather, © 2014

Note: Actual official high and low records may vary slightly from our data, if they occured in-between our weather recording intervals... More about our weather records

Advertising

Fukuoka weather history for previous 24 hours

 ConditionsComfort  
Time TempWeatherWind HumidityBarometerVisibility
5:30 AM
Jan 28
46 °FSprinkles. Passing clouds.14 mph43%30.12 "HgN/A
5:00 AM46 °FPartly cloudy.13 mph46%30.09 "HgN/A
4:30 AM45 °FPassing clouds.13 mph61%30.09 "HgN/A
4:00 AM45 °FPassing clouds.10 mph61%30.09 "HgN/A
3:30 AM46 °FSprinkles. Partly cloudy.12 mph62%30.09 "HgN/A
3:00 AM45 °FPassing clouds.3 mph57%30.09 "HgN/A
2:30 AM45 °FPartly cloudy.5 mph57%30.09 "HgN/A
2:00 AM46 °FClear.13 mph50%30.09 "Hg10 mi
1:30 AM46 °FClear.10 mph50%30.09 "Hg10 mi
1:00 AM46 °FClear.9 mph50%30.09 "Hg10 mi
12:30 AM46 °FClear.9 mph50%30.09 "Hg10 mi
12:00 AM46 °FPassing clouds.10 mph50%30.09 "HgN/A
11:30 PM
Jan 27
46 °FPartly cloudy.12 mph53%30.09 "HgN/A
11:00 PM48 °FPartly cloudy.13 mph54%30.09 "HgN/A
10:30 PM48 °FPassing clouds.12 mph54%30.09 "HgN/A
10:00 PM48 °FPartly cloudy.9 mph58%30.09 "HgN/A
9:30 PM48 °FPartly cloudy.10 mph58%30.09 "HgN/A
9:00 PM48 °FPartly cloudy.13 mph62%30.09 "HgN/A
8:30 PM48 °FPassing clouds.10 mph66%30.07 "HgN/A
8:00 PM48 °FPartly cloudy.9 mph66%30.07 "HgN/A
7:30 PM50 °FPartly cloudy.10 mph62%30.07 "HgN/A
7:00 PM50 °FPartly cloudy.10 mph58%30.07 "HgN/A
6:30 PM50 °FPartly cloudy.10 mph58%30.07 "HgN/A
6:00 PM50 °FPartly cloudy.12 mph62%30.07 "HgN/A
5:30 PM50 °FBroken clouds.7 mph62%30.04 "HgN/A
5:00 PM50 °FBroken clouds.10 mph58%30.04 "HgN/A
4:30 PM50 °FBroken clouds.10 mph62%30.07 "HgN/A
4:00 PM50 °FBroken clouds.10 mph62%30.04 "HgN/A
3:30 PM50 °FBroken clouds.10 mph58%30.04 "HgN/A
3:00 PM50 °FPartly sunny.13 mph62%30.04 "HgN/A
2:30 PM52 °FPartly sunny.15 mph54%30.04 "HgN/A
2:00 PM52 °FPartly sunny.16 mph58%30.04 "HgN/A
1:30 PM52 °FBroken clouds.15 mph58%30.04 "HgN/A
1:00 PM54 °FPartly sunny.15 mph54%30.04 "HgN/A
12:30 PM54 °FScattered clouds.15 mph51%30.04 "HgN/A
12:00 PM55 °FScattered clouds.16 mph55%30.04 "HgN/A
11:30 AM55 °FScattered clouds.13 mph55%30.07 "HgN/A
11:00 AM55 °FPartly sunny.15 mph59%30.07 "HgN/A
10:30 AM55 °FBroken clouds.13 mph55%30.07 "HgN/A
10:00 AM54 °FBroken clouds.8 mph77%30.07 "HgN/A
9:30 AM54 °FBroken clouds.8 mph77%30.07 "HgN/A
9:00 AM54 °FBroken clouds.7 mph77%30.07 "HgN/A
8:30 AM54 °FBroken clouds.10 mph77%30.07 "Hg5 mi
8:00 AM52 °FSprinkles. Partly sunny.7 mph88%30.07 "Hg6 mi
7:30 AM54 °FBroken clouds.6 mph82%30.04 "Hg5 mi
7:00 AM54 °FPartly cloudy.6 mph82%30.04 "Hg6 mi
6:30 AM52 °FPartly cloudy.6 mph94%30.04 "Hg6 mi
6:00 AM52 °FPartly cloudy.1 mph88%30.07 "Hg6 mi
Weather by CustomWeather, © 2014

See weather overviewHow to use our weather pages